Regional Weather Roundup
Issued by NWS Northern Indiana

Home | Current Version | Previous Version | Text Only | Print | Product List | Glossary Off
Versions: 1 2 3 4 5 6 7 8 9 10 11 12 13 14 15 16 17 18 19 20 21 22 23 24 25 26 27 28 29 30 31 32 33 34 35 36 37 38 39 40 41 42 43 44 45 46 47 48 49 50

048
ASUS43 KIWX 232310
RWRIWX

KIWX WEATHER ROUNDUP
NATIONAL WEATHER SERVICE NORTHERN INDIANA
600 PM EST TUE JAN 23 2018

NOTE: "FAIR" INDICATES FEW OR NO CLOUDS BELOW 12,000 FEET WITH NO
SIGNIFICANT WEATHER AND/OR OBSTRUCTIONS TO VISIBILITY.

* THESE STATIONS ARE NOT UNDER NWS QUALITY CONTROL. THEY ALSO MAY NOT
  REPORT WEATHER SUCH AS PRECIPITATION OR FOG.

INZ001>027-240000-
NORTHERN INDIANA

CITY           SKY/WX    TMP DP  RH WIND       PRES   REMARKS
GARY*          CLOUDY    32  25  74 W12       30.04R WCI  23
VALPARAISO     CLOUDY    31  25  78 NW9       30.02R WCI  23
MICHIGAN CITY* CLOUDY    30  27  86 NW8G18    30.02R WCI  23
LAPORTE*       CLOUDY    29  25  82 NW9G16    30.00R WCI  21
KNOX*          CLOUDY    30  27  86 NW13      30.00R WCI  20
SOUTH BEND     CLOUDY    29  25  85 NW10      29.98R WCI  20
ELKHART*       CLOUDY    30  27  86 NW12G17   29.96R WCI  21
GOSHEN         CLOUDY    30  26  85 W20G29    29.95R WCI  17
MONTICELLO*    CLOUDY    31  26  81 NW16      30.02R WCI  20
LOGANSPORT*    CLOUDY    32  27  80 NW14      30.01R WCI  22
ROCHESTER*     CLOUDY    32  30  93 NW12      30.00R WCI  23
WARSAW*        CLOUDY    30  27  86 NW15G24   29.97R WCI  19
AUBURN*        CLOUDY   N/A N/A N/A W16G24    29.93R
FORT WAYNE     CLOUDY    32  27  81 W18G24    29.95R WCI  20
HUNTINGTON*    CLOUDY    31  27  83 W10       29.97R WCI  22
PERU/GRISSOM   FLURRIES  31  31 100 NW15      29.98R WCI  21
MARION*        CLOUDY    32  30  93 NW21G26   29.98R WCI  20

$$
INZ028>050-240000-
CENTRAL INDIANA

CITY           SKY/WX    TMP DP  RH WIND       PRES   REMARKS
LAFAYETTE      CLOUDY    31  26  82 W14       30.04R WCI  21
MUNCIE*        CLOUDY    34  30  85 W13       29.97R FOG     WCI  25
INDIANAPOLIS   LGT SNOW  32  31  96 NW20G26   30.02R VSB 1   WCI  20

$$
MIZ043>046-050>051-056>058-064>065-071>073-077>080-240000-
SOUTHWEST LOWER MICHIGAN

CITY           SKY/WX    TMP DP  RH WIND       PRES   REMARKS
BATTLE CREEK   CLOUDY    30  26  85 NW16G26   29.88R WCI  19
BENTON HARBOR  CLOUDY    31  24  75 NW14G26   29.97R WCI  21
COLDWATER*     CLOUDY    30  28  93 W15G25    29.89R WCI  19
HILLSDALE*     CLOUDY    30  27  86 W16G25    29.84R WCI  19
HOLLAND        CLOUDY    31  23  72 N14G32    29.93R WCI  21
GRAND RAPIDS   CLOUDY    30  23  75 NW17      29.88R WCI  18
KALAMAZOO      CLOUDY    30  25  81 W16G29    29.90R WCI  19
THREE RIVERS*  CLOUDY    31  27  83 NW18G26   29.92R WCI  19

$$
OHZ001>008-015>018-024>025-240000-
NORTHWEST OHIO

CITY           SKY/WX    TMP DP  RH WIND       PRES   REMARKS
WAUSEON*       CLOUDY    32  30  93 W22G32    29.86R WCI  19
DEFIANCE       CLOUDY    32  25  75 W9G21     29.91R WCI  24
FINDLAY        CLOUDY    34  27  75 W23G32    29.88R WCI  22
TOLEDO EXPRESS CLOUDY    33  27  78 W21G38    29.85R WCI  21
TOLEDO METCALF CLOUDY    34  27  75 W20G26    29.85R WCI  23
LIMA           CLOUDY    32  30  92 W28G36    29.91R WCI  18

$$
AND FOR LAKE MICHIGAN COASTAL AND OPEN LAKE BUOY OBSERVATIONS

STATION/POSITION TEMP    WIND        PRES    VSBY  WAVE
                 AIR SEA DIR/SP/G                  HT/PER
                 (F)     (DEG/KT/KT) (MB)    (MI)  (FT/S)
CALUMET HARBOR                       1016.4R
MICHIGAN CITY     30     280/ 20/ 22   N/A
BURNS HARBOR      30     320/ 13/ 17 1016.9R
SAINT JOSEPH      32     320/ 15/ 21 1016.6

$$
&&




USA.gov is the U.S. government's official web portal to all federal, state and local government web resources and services.